Hourly Data Report for September 04, 2016

All times are specified in Local Standard Time (LST). Add 1 hour to adjust for Daylight Saving Time where and when it is observed.

CHARLOTTETOWN A
PRINCE EDWARD ISLAND

46°17'21.000" N
63°07'09.000" W
48.50 m
8300301
71706
YYG

Download Data

Hourly Data (September 2016)
Hourly Data Report for September 4, 2016
Temp Definition
°C
Dew Point Temp Definition
°C
Rel Hum Definition
%
Wind Dir Definition
10's deg

Wind Spd Definition
km/h
Visibility Definition
km
Stn Press Definition
kPa
Hmdx Definition


Wind Chill Definition


Weather Definition


TIME
00:00 Legend Double Dagger 7.2 6.5 95 28 4 24.1 101.82     LegendNANA
01:00 Legend Double Dagger 6.7 6.0 95 34 3 24.1 101.84     LegendNANA
02:00 Legend Double Dagger 6.3 5.6 95 27 4 24.1 101.89     Clear
03:00 Legend Double Dagger 6.3 5.6 95 36 3 24.1 101.92     LegendNANA
04:00 Legend Double Dagger 6.6 6.0 96 36 2 24.1 101.96     LegendNANA
05:00 Legend Double Dagger 6.7 6.0 95 28 3 24.1 101.99     Mainly Clear
06:00 Legend Double Dagger 7.9 7.3 96 36 2 24.1 102.07     LegendNANA
07:00 Legend Double Dagger 13.9 12.1 89 12 4 24.1 102.11     LegendNANA
08:00 Legend Double Dagger 15.6 11.0 74 14 4 24.1 102.17     Mainly Clear
09:00 Legend Double Dagger 14.8 11.0 78 21 7 24.1 102.23     LegendNANA
10:00 Legend Double Dagger 16.2 10.1 67 20 8 24.1 102.24     LegendNANA
11:00 Legend Double Dagger 17.8 11.4 66 20 12 24.1 102.23     Mainly Clear
12:00 Legend Double Dagger 18.1 10.6 61 20 12 24.1 102.19     LegendNANA
13:00 Legend Double Dagger 18.6 10.0 57 20 9 24.1 102.15     LegendNANA
14:00 Legend Double Dagger 18.7 8.5 51 18 14 24.1 102.16     Mainly Clear
15:00 Legend Double Dagger 19.1 8.3 49 19 14 24.1 102.11     LegendNANA
16:00 Legend Double Dagger 19.2 9.2 52 17 12 24.1 102.08     LegendNANA
17:00 Legend Double Dagger 18.9 9.2 53 16 12 24.1 102.05     Mainly Clear
18:00 Legend Double Dagger 17.6 9.3 58 17 12 24.1 102.01     LegendNANA
19:00 Legend Double Dagger 15.2 10.7 74 18 12 24.1 102.01     LegendNANA
20:00 Legend Double Dagger 14.7 9.3 70 16 11 24.1 102.09     Clear
21:00 Legend Double Dagger 14.9 10.8 76 17 13 24.1 102.09     LegendNANA
22:00 Legend Double Dagger 16.1 11.3 73 20 18 24.1 102.08     LegendNANA
23:00 Legend Double Dagger 15.4 11.2 76 21 16 24.1 102.09     Clear

Notes on Data Quality.

Legend

  • E = Estimated
  • M = Missing
  • NA = Not Available
  • ‡ = Partner data that is not subject to review by the National Climate Archives
Date modified: